Regional Weather Roundup
Issued by NWS

Home | Current Version | Previous Version | Graphics & Text | Print | Product List | Glossary Off
Versions: 1 2 3 4 5 6 7 8 9 10 11 12 13 14 15 16 17 18 19 20 21 22 23 24 25 26 27 28 29 30 31 32 33 34 35 36 37 38 39 40 41 42 43 44 45 46 47 48 49 50

000
ASUS43 KFSD 241602
RWRSD

WEATHER ROUNDUP FOR SOUTH DAKOTA
NATIONAL WEATHER SERVICE SIOUX FALLS SD
1100 AM CDT SUN MAY 24 2015

NOTE: "FAIR" INDICATES FEW OR NO CLOUDS BELOW 12,000 FEET WITH NO
SIGNIFICANT WEATHER AND/OR OBSTRUCTIONS TO VISIBILITY.


SDZ001>005-009-010-012>017-241700-
NORTHWEST AND NORTH CENTRAL SOUTH DAKOTA

CITY           SKY/WX    TMP DP  RH WIND       PRES   REMARKS
FAITH            N/A     55  51  86 NE14      29.96F
MOBRIDGE       CLOUDY    65  50  58 E16       29.94F
$$

SDZ012>016-024>037-041>051-057-063-072>074-241700-
SOUTHWEST AND SOUTH CENTRAL SOUTH DAKOTA

CITY           SKY/WX    TMP DP  RH WIND       PRES   REMARKS
RAPID CTY ARPT RAIN      53  52  96 E13       29.92F FOG
PIERRE         CLOUDY    60  55  83 E13       29.92F
CUSTER         LGT RAIN  47  45  93 E6        29.94F FOG
ELLSWORTH AFB  RAIN      53  53 100 E15       29.92
PHILIP         RAIN      56  55  97 E16       29.91F FOG
PINE RIDGE     LGT RAIN  55  52  89 E8        29.90R
WINNER         CLOUDY    57  55  93 E12       29.91S FOG
$$

SDZ004>011-016>023-039-040-241700-
NORTHEAST SOUTH DAKOTA

CITY           SKY/WX    TMP DP  RH WIND       PRES   REMARKS
ABERDEEN       CLOUDY    64  52  64 NE8       29.96F
WATERTOWN      CLOUDY    59  54  83 NE6       29.96F
BROOKINGS      CLOUDY    59  55  88 E8        29.95F
$$

SDZ017-020-022-023-036>040-048>070-241700-
SOUTHEAST SOUTH DAKOTA

CITY           SKY/WX    TMP DP  RH WIND       PRES   REMARKS
SIOUX FALLS    CLOUDY    61  58  90 E10       29.90F
HURON          LGT RAIN  59  58  96 E6G17     29.93F FOG
CHAMBERLAIN    CLOUDY    57  57  99 NE8       29.91F FOG
MITCHELL       LGT RAIN  61  59  93 NE8       29.91F FOG
YANKTON        CLOUDY    61  57  88 NE10      29.87F
$$

ABBREVIATIONS USED IN REMARKS
   TC - TEMPERATURE IN CELSIUS
  WCI - WIND CHILL INDEX
   HX - HEAT INDEX
  VSB - VISIBILITY




USA.gov is the U.S. government's official web portal to all federal, state and local government web resources and services.